SCP
0 0 0 0 0 0 0 0 0 0 0 0 0 0 0 0 0 0 0 0 0 0 0 0 0 0 0 0 0 0 0 0 0 0 0 0 0 0 0 0 0 0 0 0
0 0 0 0 0 0 0 0 0 0 0 0 0 0 0 0 0 0 0 0 0 0 0 0 0 0 0 0 0 0 0 0 0 0 0 0 0 0 0 0 0 0 0 0
0 0 0 0 0 0 0 0 0 0 0 0 0 0 0 0 0 0 0 0 0 0 0 0 0 0 0 0 0 0 0 0 0 0 0 0 0 0 0 0 0 0 0 0
0 0 0 0 0 0 0 0 0 0 0 0 0 0 0 0 0 0 0 0 0 0 0 0 0 0 0 0 0 0 0 0 0 0 0 0 0 0 0 0 0 0 0 0
0 0 0 0 0 0 0 0 0 0 0 0 0 0 0 0 0 0 0 0 0 0 0 0 0 0 0 0 0 0 0 0 0 0 0 0 0 0 0 0 0 0 0 0
0 0 0 0 0 0 0 0 0 0 0 0 0 0 0 0 0 0 0 0 0 0 0 0 0 0 0 0 0 0 0 0 0 0 0 0 0 0 0 0 0 0 0 0
0 0 0 0 0 0 0 0 0 0 0 0 0 0 0 0 0 0 0 0 0 0 0 0 0 0 0 0 0 0 0 0 0 0 0 0 0 0 0 0 0 0 0 0
0 0 0 0 0 0 0 0 0 0 0 0 0 0 0 0 0 0 0 0 0 0 0 0 0 0 0 0 0 0 0 0 0 0 0 0 0 0 0 0 0 0 0 0
0 0 0 0 0 0 0 0 0 0 0 0 0 0 0 0 0 0 0 0 0 0 0 0 0 0 0 0 0 0 0 0 0 0 0 0 0 0 0 0 0 0 0 0
0 0 0 0 0 0 0 0 0 0 0 0 0 0 0 0 0 0 0 0 0 0 0 0 0 0 0 0 0 0 0 0 0 0 0 0 0 0 0 0 0 0 0 0
0 0 0 0 0 0 0 0 0 0 0 0 0 0 0 0 0 0 0 0 0 0 0 0 0 0 0 0 0 0 0 0 0 0 0 0 0 0 0 0 0 0 0 0
0 0 0 0 0 0 0 0 0 0 0 0 0 0 0 0 0 0 0 0 0 0 0 0 0 0 0 0 0 0 0 0 0 0 0 0 0 0 0 0 0 0 0 0
0 0 0 0 0 0 0 0 0 0 0 0 0 0 0 0 0 0 0 0 0 0 0 0 0 0 0 0 0 0 0 0 0 0 0 0 0 0 0 0 0 0 0 0
0 0 0 0 0 0 0 0 0 0 0 0 0 0 0 0 0 0 0 0 0 0 0 0 0 0 0 0 0 0 0 0 0 0 0 0 0 0 0 0 0 0 0 0
0 0 0 0 0 0 0 -0 0 0 0 0 0 0 0 0 0 0 0 0 0 0 0 0 0 0 0 0 0 0 0 0 0 0 0 0 0 0 0 0 0 0 0 0
0 0 0 0 0 0 0 0 0 0 0 0 0 0 0 0 0 0 0 0 0 0 0 0 0 0 0 0 0 0 0 0 0 0 0 0 0 0 0 0 0 0 0 0
0 0 0 0 0 0 0 0 0 0 0 0 0 0 0 0 0 0 0 0 0 0 0 0 0 0 0 0 0 0 0 0 0 0 0 0 0 0 0 0 0 0 0 0
0 0 0 0 0 0 0 0 0 0 0 0 0 0 0 0 0 0 0 0 0 0 0 0 0 0 0 0 0 0 0 0 0 0 0 0 0 0 0 0 0 0 0 0
0 0 0 0 0 0 0 0 0 0 0 0 0 0 0 0 0 0 0 0 0 0 0 0 0 0 0 0 0 0 0 0 0 0 0 0 0 0 0 0 0 0 0 0
0 0 0 0 0 0 0 0 0 0 0 0 0 0 0 0 0 0 0 0 0 0 0 0 0 0 0 0 0 0 0 0 0 0 0 0 0 0 0 0 0 0 0 0
0 0 0 0 0 0 0 0 0 0 0 0 0 0 0 0 0 0 0 0 0 0 0 0 0 0 0 0 0 0 0 0 0 0 0 0 0 0 0 0 0 0 0 0
0 0 0 0 0 0 0 0 0 0 0 0 0 0 0 0 0 0 0 0 0 0 0 0 0 0 0 0 0 0 0 0 0 0 0 0 0 0 0 0 0 0 0 0
0 0 0 0 0 0 0 0 0 0 0 0 0 0 0 0 0 0 0 0 0 0 0 0 0 0 0 0 0 0 0 0 0 0 0 0 0 0 0 0 0 0 0 0
0 0 0 0 0 0 0 0 0 0 0 0 0 0 0 0 0 0 0 0 0 0 0 0 0 0 0 0 0 0 0 0 0 0 0 0 0 0 0 0 0 0 0 0
0 0 0 0 0 0 0 0 0 0 0 0 0 0 0 0 0 0 0 0 0 0 0 0 0 0 0 0 0 0 0 0 0 0 0 0 0 0 0 0 0 0 0 0
0 0 0 0 0 0 0 0 0 0 0 0 0 0 0 0 0 0 0 0 0 0 0 0 0 0 0 0 0 0 0 0 0 0 0 0 0 0 0 0 0 0 0 0
0 0 0 0 0 0 0 0 0 0 0 0 0 0 0 0 0 0 0 0 0 0 0 0 0 0 0 0 0 0 0 0 0 0 0 0 0 0 0 0 0 0 0 0
Wind_Speed
3 2 1 1 2 2 2 2 2 4 4 3 4 5 5 6 7 8 9 9 9 9 8 7 7 7 6 5 4 3 2 1 0 0 1 2 3 4 5 5 6 6 7 7
2 3 1 2 2 1 1 1 2 4 3 3 3 4 5 5 6 7 8 8 8 8 8 7 7 7 6 5 5 3 2 1 0 1 2 3 3 4 5 5 6 6 7 7
1 2 1 0 2 1 1 0 1 2 2 2 2 3 3 4 5 6 6 7 7 7 7 7 7 7 6 6 4 3 3 2 1 1 2 2 3 4 5 6 6 6 6 7
1 0 1 3 2 1 1 1 1 1 2 1 2 3 4 4 4 5 5 6 6 6 6 6 6 6 6 5 4 3 3 2 2 2 3 3 4 5 5 5 6 6 6 7
1 1 2 1 2 2 2 1 1 2 2 2 2 3 3 4 4 4 4 5 5 6 6 6 6 6 6 5 5 4 3 3 3 3 4 4 5 5 5 5 6 6 6 7
2 2 2 3 3 1 2 2 3 3 3 3 3 2 1 2 3 4 4 4 5 5 5 6 6 6 6 5 5 5 5 5 4 4 5 5 5 5 4 5 6 6 6 7
3 3 2 2 2 3 4 2 4 4 3 3 2 1 2 2 3 4 4 5 5 6 5 6 6 6 6 6 6 6 6 5 5 5 5 5 5 4 4 5 5 6 6 6
4 5 3 5 5 5 1 3 4 3 3 2 1 1 1 2 3 4 5 6 6 6 6 6 6 6 6 6 7 7 6 5 5 5 4 4 5 4 5 6 6 7 7 7
4 1 3 2 2 1 2 3 3 3 3 3 2 1 1 2 4 5 6 6 6 7 7 6 6 6 7 7 8 7 6 6 5 5 4 4 5 5 5 5 5 6 6 6
4 4 4 4 3 3 3 3 3 3 3 2 2 1 2 3 4 5 5 6 6 7 8 7 7 7 7 8 8 7 7 6 5 5 4 4 4 4 5 5 6 6 6 7
5 3 3 5 6 5 4 4 4 3 2 2 2 2 3 4 4 5 6 6 6 7 8 8 8 8 8 8 8 7 7 6 6 5 5 5 5 5 6 7 7 7 6 6
6 5 5 4 5 6 6 6 5 4 3 2 2 3 3 4 5 5 6 6 7 7 8 8 8 8 8 7 7 7 7 6 5 5 5 5 5 5 8 10 11 13 11 9
1 3 2 2 4 6 5 5 4 4 3 2 2 3 4 5 5 6 7 7 7 8 8 8 8 8 8 7 7 7 7 7 6 5 5 5 5 5 6 7 10 13 14 14
4 4 3 4 5 5 4 4 3 2 2 2 2 3 4 5 6 7 7 7 8 8 8 8 9 9 8 7 7 8 8 7 7 6 5 5 6 6 5 6 5 5 8 13
6 4 3 4 5 5 4 4 3 3 3 3 3 4 4 6 7 8 8 7 8 8 8 8 9 9 8 7 8 8 7 6 5 6 6 6 6 6 6 6 6 5 4 5
6 5 5 6 6 5 4 4 4 4 3 4 4 5 5 6 7 8 8 7 8 9 9 9 9 9 8 8 8 7 7 8 8 6 6 6 6 6 6 6 6 5 5 5
9 7 7 6 6 5 5 4 4 3 4 5 5 6 6 7 8 8 8 7 8 9 9 9 10 9 8 7 7 6 6 7 8 7 6 6 6 6 6 6 5 5 5 5
6 6 6 6 6 5 4 3 3 3 4 4 5 6 6 7 8 9 9 9 9 10 9 8 8 8 8 7 7 6 6 6 6 6 6 6 6 6 6 6 6 6 5 5
6 6 5 4 4 3 3 2 3 3 3 4 5 6 7 8 8 9 9 9 10 10 8 7 9 9 8 8 7 6 6 6 6 6 6 8 8 6 6 6 6 6 5 4
6 6 5 4 3 2 2 1 2 3 3 4 5 7 8 8 8 8 9 9 8 7 9 9 9 8 8 7 8 6 6 7 7 7 6 6 6 6 6 6 6 6 5 5
7 6 5 4 2 1 1 1 2 3 4 4 5 7 8 8 8 7 8 8 7 7 9 11 8 7 7 7 9 6 6 7 7 7 6 6 6 6 6 6 5 5 4 4
6 5 4 3 2 1 0 1 2 3 4 4 5 6 7 8 8 8 8 7 8 10 9 7 7 9 10 11 7 7 7 7 7 6 6 6 6 6 6 5 5 4 4 4
5 4 3 2 1 1 1 1 2 3 4 5 6 6 7 7 6 7 7 6 7 11 9 7 10 14 15 9 7 7 7 7 7 6 6 6 6 6 5 5 5 4 4 3
4 4 2 2 1 0 2 2 3 3 5 5 5 6 7 7 6 5 6 10 12 13 9 10 15 15 14 7 6 6 6 6 6 6 6 6 5 5 5 5 4 4 4 4
4 3 2 2 0 1 2 3 4 4 5 5 6 6 5 5 6 7 8 9 12 12 9 10 14 14 9 6 6 6 6 6 6 6 5 5 5 5 4 4 4 4 3 3
3 2 1 0 0 1 2 2 3 4 4 5 5 5 5 5 7 7 7 8 10 11 9 7 8 8 6 6 6 6 6 6 6 5 5 5 5 5 4 4 4 3 3 3
3 2 1 1 1 1 2 2 3 4 5 5 7 6 6 7 7 7 8 7 7 7 7 7 6 6 6 6 6 6 5 5 5 5 4 4 4 4 4 4 3 3 3 3
Wind_Direction
48 16 38 30 17 37 52 36 74 102 101 80 64 67 65 62 62 61 55 47 41 37 34 31 30 28 23 19 15 6 1 359 22 145 157 165 168 168 167 168 168 166 163 163
57 37 46 31 3 19 67 80 121 125 102 71 74 73 70 61 54 51 45 39 34 31 27 23 18 12 8 6 1 348 336 323 325 197 180 179 176 174 173 172 171 170 172 171
83 351 273 348 337 265 154 108 188 164 107 118 102 75 63 53 49 43 35 29 24 17 11 6 1 354 353 350 343 336 326 312 278 231 214 200 187 186 186 182 180 182 183 183
97 195 213 63 43 267 167 187 217 129 102 102 85 83 67 49 41 38 27 17 12 6 0 356 349 346 341 339 337 328 317 303 278 247 231 215 206 204 199 192 191 192 193 194
172 213 246 185 182 196 206 187 200 200 170 123 119 140 112 58 33 24 13 4 359 353 348 344 346 342 333 334 331 321 309 295 275 252 238 226 220 214 206 201 202 201 197 197
181 231 232 112 118 187 223 199 161 184 172 159 179 230 102 49 9 4 1 356 349 344 343 344 345 338 330 331 327 320 311 297 279 257 243 236 231 224 218 212 210 204 204 204
210 243 263 108 138 181 214 79 136 166 162 167 195 355 47 17 359 353 347 344 341 339 340 341 338 332 327 327 326 320 309 295 281 264 252 247 239 227 221 217 212 210 210 212
199 221 228 135 163 202 43 92 145 158 168 172 162 106 23 351 344 342 338 338 337 332 330 332 334 328 321 322 323 316 307 295 285 273 260 246 238 229 223 219 216 214 214 216
223 239 60 165 197 82 129 164 168 171 174 177 194 233 296 320 329 330 329 330 329 323 320 323 329 326 316 321 322 316 308 300 293 283 265 247 235 229 223 220 222 219 215 217
241 236 219 217 213 203 193 184 167 168 172 192 218 255 289 304 314 318 321 323 322 319 316 318 324 322 317 317 316 312 306 303 296 285 275 260 246 233 229 225 226 225 222 222
238 237 224 221 212 198 180 165 155 155 167 192 221 261 288 297 305 311 314 316 315 313 311 313 317 316 317 317 314 308 303 299 293 281 272 265 254 244 239 238 235 233 230 226
219 196 197 190 180 181 179 180 177 173 181 201 241 267 282 289 299 304 308 310 308 306 307 309 311 311 313 315 312 307 302 299 294 289 282 274 269 265 248 248 251 248 245 238
198 139 164 128 156 170 179 179 178 190 205 227 249 266 279 287 295 298 300 302 303 303 304 306 306 306 310 313 309 301 295 295 292 287 283 280 275 272 275 264 255 252 247 244
170 150 162 173 172 169 165 160 163 181 211 234 252 265 276 284 290 293 296 299 300 297 297 299 300 301 307 309 303 296 293 289 286 284 282 279 277 274 272 272 272 265 250 245
189 195 171 146 148 151 152 158 176 203 221 241 251 265 276 284 289 292 295 298 296 293 293 296 296 298 306 304 299 295 292 289 289 287 282 278 276 274 270 268 267 269 266 253
163 156 153 159 165 167 173 189 211 231 245 258 265 273 280 282 285 288 291 294 293 293 296 295 291 295 302 298 294 291 286 285 287 287 283 279 276 273 271 269 266 264 260 258
157 169 177 183 187 191 202 212 227 245 257 264 273 283 286 286 286 289 294 297 291 287 287 287 288 294 295 292 290 288 289 288 287 285 281 280 278 275 272 269 268 266 263 258
179 169 171 174 183 192 204 214 230 247 260 273 283 284 284 285 289 296 302 304 299 292 287 285 288 293 291 289 287 284 283 285 286 284 282 281 281 277 274 270 269 269 269 265
145 141 141 145 158 174 190 213 239 258 272 279 281 283 286 287 290 296 301 299 295 294 299 303 301 293 289 287 289 280 279 281 283 282 281 283 283 278 275 272 270 268 266 263
131 129 128 126 129 150 182 221 253 267 277 284 286 288 290 293 297 298 297 290 283 288 300 304 301 293 291 288 287 279 277 278 280 282 282 281 281 279 276 274 272 269 267 264
137 135 135 136 137 151 194 241 262 278 289 288 286 290 295 299 301 298 294 293 299 307 305 302 298 295 294 295 290 279 276 277 278 279 279 279 280 280 279 276 273 270 268 269
141 141 143 144 152 182 285 285 283 290 296 295 293 295 299 301 303 298 285 282 298 311 311 302 300 300 303 300 287 281 279 279 280 279 278 277 278 277 278 279 277 277 275 272
137 137 140 149 175 261 309 306 303 299 299 300 300 302 302 302 302 299 300 303 308 311 309 300 304 307 307 300 288 283 281 281 281 281 281 281 281 280 280 281 280 278 278 276
129 127 124 112 109 294 310 321 316 304 301 298 296 300 302 303 300 292 293 303 309 310 305 303 308 310 310 299 291 287 284 282 282 282 282 280 278 277 277 277 278 279 278 276
125 123 122 130 156 298 313 318 313 309 310 306 307 307 302 296 296 304 306 305 309 312 307 308 311 313 309 298 295 291 288 285 285 286 282 281 280 278 276 275 274 275 275 274
125 128 132 128 342 329 322 317 313 317 318 315 315 315 314 310 305 305 306 307 309 311 310 307 309 310 305 301 298 296 294 294 294 289 286 285 284 283 281 279 278 274 274 274
110 105 105 87 14 336 320 313 311 314 317 313 310 314 316 315 313 314 314 312 313 313 311 310 309 307 304 302 301 300 298 297 295 292 290 288 287 285 283 280 278 276 273 270